
Distance (Route):
Temperature : 0°C
Humidity : 0%
Pressure : 0hPa| Receiver | Date | Latitude | Longitude | Direction | Speed | Altitude | Climb | Temperature | Humidity | Pressure | Voltage | Killtimer | Uptime | BKT | XDATA |
|---|---|---|---|---|---|---|---|---|---|---|---|---|---|---|---|
| RDZ2B | 2026-09-03 13:10:49 | 41.41404 | 9.05795 | 156° | 69km/h | 10403m | -19.1m/s | 0°C | 0% | 0hPa | 0V | 00:00:00 | 00:00:00 | 00:00:00 | |
| RDZ2B | 2026-09-03 13:09:39 | 41.42727 | 9.05088 | 159° | 84km/h | 11674m | -18.8m/s | 0°C | 0% | 0hPa | 0V | 00:00:00 | 00:00:00 | 00:00:00 | |
| RDZBGO | 2026-09-03 13:08:51 | 41.43638 | 9.04610 | 162° | 88km/h | 12682m | -21.0m/s | 0°C | 0% | 0hPa | 0V | 00:00:00 | 00:00:00 | 00:00:00 | |
| RDZ2B | 2026-09-03 13:08:15 | 41.44341 | 9.04219 | 161° | 78km/h | 13486m | -23.0m/s | 0°C | 0% | 0hPa | 0V | 00:00:00 | 00:00:00 | 00:00:00 | |
| RDZBGO | 2026-09-03 13:07:47 | 41.44799 | 9.03971 | 153° | 64km/h | 14117m | -21.1m/s | 0°C | 0% | 0hPa | 0V | 00:00:00 | 00:00:00 | 00:00:00 | |
| RDZBGO | 2026-09-03 13:07:25 | 41.45067 | 9.03744 | 136° | 60km/h | 14638m | -26.2m/s | 0°C | 0% | 0hPa | 0V | 00:00:00 | 00:00:00 | 00:00:00 | |
| RDZBGO | 2026-09-03 13:06:59 | 41.45368 | 9.03386 | 147° | 69km/h | 15311m | -27.2m/s | 0°C | 0% | 0hPa | 0V | 00:00:00 | 00:00:00 | 00:00:00 | |
| RDZBGO | 2026-09-03 13:06:26 | 41.45732 | 9.03066 | 160° | 38km/h | 16176m | -25.2m/s | 0°C | 0% | 0hPa | 0V | 00:00:00 | 00:00:00 | 00:00:00 | |
| RDZBGO | 2026-09-03 13:05:53 | 41.45950 | 9.02751 | 138° | 47km/h | 17088m | -29.0m/s | 0°C | 0% | 0hPa | 0V | 00:00:00 | 00:00:00 | 00:00:00 | |
| RDZBGO | 2026-09-03 13:05:17 | 41.46174 | 9.02649 | 86° | 9km/h | 18279m | -35.6m/s | 0°C | 0% | 0hPa | 0V | 00:00:00 | 00:00:00 | 00:00:00 | |
| RDZ2B | 2026-09-03 13:04:54 | 41.46246 | 9.02553 | 208° | 15km/h | 19115m | -37.7m/s | 0°C | 0% | 0hPa | 0V | 00:00:00 | 00:00:00 | 00:00:00 | |
| RDZBGO | 2026-09-03 13:04:53 | 41.46249 | 9.02555 | 204° | 13km/h | 19152m | -37.5m/s | 0°C | 0% | 0hPa | 0V | 00:00:00 | 00:00:00 | 00:00:00 | |
| RDZBGO | 2026-09-03 13:04:32 | 41.46308 | 9.02526 | 171° | 13km/h | 19977m | -41.1m/s | 0°C | 0% | 0hPa | 0V | 00:00:00 | 00:00:00 | 00:00:00 | |
| RDZBGO | 2026-09-03 13:04:10 | 41.46310 | 9.02505 | 48° | 15km/h | 20914m | -43.3m/s | 0°C | 0% | 0hPa | 0V | 00:00:00 | 00:00:00 | 00:00:00 | |
| RDZBGO | 2026-09-03 13:03:43 | 41.46326 | 9.02494 | 169° | 7km/h | 22131m | -47.0m/s | 0°C | 0% | 0hPa | 0V | 00:00:00 | 00:00:00 | 00:00:00 | |
| RDZBGO | 2026-09-03 13:03:21 | 41.46305 | 9.02579 | 343° | 11km/h | 23204m | -50.3m/s | 0°C | 0% | 0hPa | 0V | 00:00:00 | 00:00:00 | 00:00:00 | |
| RDZBGO | 2026-09-03 13:02:45 | 41.46240 | 9.02524 | 72° | 15km/h | 25105m | -52.9m/s | 0°C | 0% | 0hPa | 0V | 00:00:00 | 00:00:00 | 00:00:00 | |
| RDZ2B | 2026-09-03 13:02:40 | 41.46234 | 9.02513 | 6° | 11km/h | 25383m | -58.6m/s | 0°C | 0% | 0hPa | 0V | 00:00:00 | 00:00:00 | 00:00:00 | |
| RDZBGO | 2026-09-03 13:02:25 | 41.46182 | 9.02524 | 333° | 15km/h | 26259m | -63.5m/s | 0°C | 0% | 0hPa | 0V | 00:00:00 | 00:00:00 | 00:00:00 | |
| RDZBGO | 2026-09-03 13:02:02 | 41.46173 | 9.02521 | 199° | 22km/h | 27791m | -69.3m/s | 0°C | 0% | 0hPa | 0V | 00:00:00 | 00:00:00 | 00:00:00 | |
| RDZBGO | 2026-09-03 13:01:38 | 41.46314 | 9.02576 | 206° | 31km/h | 29494m | -81.2m/s | 0°C | 0% | 0hPa | 0V | 00:00:00 | 00:00:00 | 00:00:00 | |
| RDZBGO | 2026-09-03 13:00:55 | 41.46528 | 9.03125 | 282° | 40km/h | 31207m | -1.3m/s | 0°C | 0% | 0hPa | 0V | 00:00:00 | 00:00:00 | 00:00:00 | |
| RDZ2B | 2026-09-03 13:00:44 | 41.46599 | 9.03264 | 190° | 46km/h | 31141m | 7.2m/s | 0°C | 0% | 0hPa | 0V | 00:00:00 | 00:00:00 | 00:00:00 | |
| RDZBGO | 2026-09-03 13:00:30 | 41.46709 | 9.03454 | 260° | 66km/h | 31073m | -3.0m/s | 0°C | 0% | 0hPa | 0V | 00:00:00 | 00:00:00 | 00:00:00 | |
| RDZ2B | 2026-09-03 13:00:18 | 41.46767 | 9.03566 | 164° | 40km/h | 31004m | 5.5m/s | 0°C | 0% | 0hPa | 0V | 00:00:00 | 00:00:00 | 00:00:00 | |
| RDZ2B | 2026-09-03 12:59:55 | 41.46862 | 9.03787 | 296° | 4km/h | 30876m | 11.3m/s | 0°C | 0% | 0hPa | 0V | 00:00:00 | 00:00:00 | 00:00:00 | |
| RDZBGO | 2026-09-03 12:59:38 | 41.46923 | 9.03933 | 129° | 26km/h | 30775m | 4.4m/s | 0°C | 0% | 0hPa | 0V | 00:00:00 | 00:00:00 | 00:00:00 | |
| RDZBGO | 2026-09-03 12:59:15 | 41.46989 | 9.04154 | 118° | 24km/h | 30637m | 5.2m/s | 0°C | 0% | 0hPa | 0V | 00:00:00 | 00:00:00 | 00:00:00 | |
| RDZBGO | 2026-09-03 12:58:47 | 41.47021 | 9.04313 | 232° | 42km/h | 30478m | 2.2m/s | 0°C | 0% | 0hPa | 0V | 00:00:00 | 00:00:00 | 00:00:00 | |
| RDZ2B | 2026-09-03 12:58:32 | 41.47025 | 9.04419 | 267° | 33km/h | 30390m | 5.4m/s | 0°C | 0% | 0hPa | 0V | 00:00:00 | 00:00:00 | 00:00:00 | |
| RDZBGO | 2026-09-03 12:58:24 | 41.47048 | 9.04473 | 254° | 64km/h | 30346m | 5.2m/s | 0°C | 0% | 0hPa | 0V | 00:00:00 | 00:00:00 | 00:00:00 | |
| RDZ2B | 2026-09-03 12:58:05 | 41.47082 | 9.04650 | 131° | 29km/h | 30228m | 4.6m/s | 0°C | 0% | 0hPa | 0V | 00:00:00 | 00:00:00 | 00:00:00 | |
| RDZBGO | 2026-09-03 12:58:04 | 41.47088 | 9.04648 | 194° | 31km/h | 30227m | -3.7m/s | 0°C | 0% | 0hPa | 0V | 00:00:00 | 00:00:00 | 00:00:00 | |
| RDZ2B | 2026-09-03 12:57:41 | 41.47187 | 9.04872 | 245° | 42km/h | 30088m | 6.1m/s | 0°C | 0% | 0hPa | 0V | 00:00:00 | 00:00:00 | 00:00:00 | |
| RDZ2B | 2026-09-03 12:57:21 | 41.47330 | 9.05026 | 209° | 75km/h | 29969m | 4.1m/s | 0°C | 0% | 0hPa | 0V | 00:00:00 | 00:00:00 | 00:00:00 | |
| RDZBGO | 2026-09-03 12:57:20 | 41.47347 | 9.05032 | 181° | 69km/h | 29964m | 5.6m/s | 0°C | 0% | 0hPa | 0V | 00:00:00 | 00:00:00 | 00:00:00 | |
| RDZBGO | 2026-09-03 12:56:55 | 41.47482 | 9.05154 | 157° | 49km/h | 29813m | 7.0m/s | 0°C | 0% | 0hPa | 0V | 00:00:00 | 00:00:00 | 00:00:00 | |
| RDZ2B | 2026-09-03 12:56:40 | 41.47497 | 9.05228 | 254° | 58km/h | 29726m | 5.3m/s | 0°C | 0% | 0hPa | 0V | 00:00:00 | 00:00:00 | 00:00:00 | |
| RDZBGO | 2026-09-03 12:56:31 | 41.47507 | 9.05278 | 242° | 68km/h | 29673m | 4.0m/s | 0°C | 0% | 0hPa | 0V | 00:00:00 | 00:00:00 | 00:00:00 | |
| RDZBGO | 2026-09-03 12:56:11 | 41.47590 | 9.05360 | 5° | 38km/h | 29557m | 7.4m/s | 0°C | 0% | 0hPa | 0V | 00:00:00 | 00:00:00 | 00:00:00 | |
| RDZBGO | 2026-09-03 12:55:50 | 41.47692 | 9.05456 | 243° | 66km/h | 29435m | 5.2m/s | 0°C | 0% | 0hPa | 0V | 00:00:00 | 00:00:00 | 00:00:00 | |
| RDZBGO | 2026-09-03 12:55:27 | 41.47825 | 9.05545 | 248° | 64km/h | 29302m | 3.5m/s | 0°C | 0% | 0hPa | 0V | 00:00:00 | 00:00:00 | 00:00:00 | |
| RDZBGO | 2026-09-03 12:55:04 | 41.47960 | 9.05596 | 225° | 46km/h | 29165m | 5.0m/s | 0°C | 0% | 0hPa | 0V | 00:00:00 | 00:00:00 | 00:00:00 | |
| RDZBGO | 2026-09-03 12:54:34 | 41.48086 | 9.05627 | 269° | 44km/h | 28998m | 6.6m/s | 0°C | 0% | 0hPa | 0V | 00:00:00 | 00:00:00 | 00:00:00 | |
| RDZBGO | 2026-09-03 12:54:12 | 41.48158 | 9.05640 | 333° | 33km/h | 28873m | 9.5m/s | 0°C | 0% | 0hPa | 0V | 00:00:00 | 00:00:00 | 00:00:00 | |
| RDZBGO | 2026-09-03 12:53:48 | 41.48197 | 9.05739 | 247° | 42km/h | 28737m | 0.8m/s | 0°C | 0% | 0hPa | 0V | 00:00:00 | 00:00:00 | 00:00:00 | |
| RDZBGO | 2026-09-03 12:53:22 | 41.48256 | 9.05791 | 172° | 47km/h | 28589m | 6.0m/s | 0°C | 0% | 0hPa | 0V | 00:00:00 | 00:00:00 | 00:00:00 | |
| RDZBGO | 2026-09-03 12:52:55 | 41.48338 | 9.05732 | 328° | 38km/h | 28432m | 3.2m/s | 0°C | 0% | 0hPa | 0V | 00:00:00 | 00:00:00 | 00:00:00 | |
| RDZBGO | 2026-09-03 12:52:31 | 41.48393 | 9.05670 | 147° | 46km/h | 28291m | 3.4m/s | 0°C | 0% | 0hPa | 0V | 00:00:00 | 00:00:00 | 00:00:00 | |
| RDZBGO | 2026-09-03 12:52:07 | 41.48388 | 9.05694 | 185° | 35km/h | 28155m | 12.2m/s | 0°C | 0% | 0hPa | 0V | 00:00:00 | 00:00:00 | 00:00:00 | |
| RDZBGO | 2026-09-03 12:51:47 | 41.48438 | 9.05740 | 152° | 24km/h | 28043m | 7.3m/s | 0°C | 0% | 0hPa | 0V | 00:00:00 | 00:00:00 | 00:00:00 | |
| RDZBGO | 2026-09-03 12:51:26 | 41.48491 | 9.05822 | 204° | 53km/h | 27929m | 2.5m/s | 0°C | 0% | 0hPa | 0V | 00:00:00 | 00:00:00 | 00:00:00 | |
| RDZBGO | 2026-09-03 12:51:05 | 41.48584 | 9.05876 | 288° | 37km/h | 27809m | 9.2m/s | 0°C | 0% | 0hPa | 0V | 00:00:00 | 00:00:00 | 00:00:00 | |
| RDZBGO | 2026-09-03 12:50:45 | 41.48684 | 9.05894 | 98° | 44km/h | 27700m | 2.9m/s | 0°C | 0% | 0hPa | 0V | 00:00:00 | 00:00:00 | 00:00:00 | |
| RDZBGO | 2026-09-03 12:50:24 | 41.48717 | 9.05857 | 194° | 35km/h | 27582m | 7.6m/s | 0°C | 0% | 0hPa | 0V | 00:00:00 | 00:00:00 | 00:00:00 | |
| RDZBGO | 2026-09-03 12:49:40 | 41.48610 | 9.05845 | 193° | 31km/h | 27348m | 4.8m/s | 0°C | 0% | 0hPa | 0V | 00:00:00 | 00:00:00 | 00:00:00 | |
| RDZBGO | 2026-09-03 12:49:19 | 41.48519 | 9.05917 | 242° | 40km/h | 27233m | 7.7m/s | 0°C | 0% | 0hPa | 0V | 00:00:00 | 00:00:00 | 00:00:00 | |
| RDZBGO | 2026-09-03 12:48:58 | 41.48453 | 9.06012 | 302° | 44km/h | 27121m | 6.6m/s | 0°C | 0% | 0hPa | 0V | 00:00:00 | 00:00:00 | 00:00:00 | |
| RDZBGO | 2026-09-03 12:48:38 | 41.48449 | 9.06102 | 70° | 33km/h | 27000m | 4.8m/s | 0°C | 0% | 0hPa | 0V | 00:00:00 | 00:00:00 | 00:00:00 | |
| RDZBGO | 2026-09-03 12:48:17 | 41.48430 | 9.06195 | 213° | 40km/h | 26893m | 4.3m/s | 0°C | 0% | 0hPa | 0V | 00:00:00 | 00:00:00 | 00:00:00 | |
| RDZ2B | 2026-09-03 12:48:02 | 41.48437 | 9.06243 | 173° | 35km/h | 26805m | 5.6m/s | 0°C | 0% | 0hPa | 0V | 00:00:00 | 00:00:00 | 00:00:00 | |
| RDZBGO | 2026-09-03 12:47:56 | 41.48425 | 9.06265 | 202° | 38km/h | 26771m | 4.5m/s | 0°C | 0% | 0hPa | 0V | 00:00:00 | 00:00:00 | 00:00:00 | |
| RDZBGO | 2026-09-03 12:47:36 | 41.48429 | 9.06330 | 210° | 46km/h | 26646m | 4.1m/s | 0°C | 0% | 0hPa | 0V | 00:00:00 | 00:00:00 | 00:00:00 | |
| RDZBGO | 2026-09-03 12:47:11 | 41.48392 | 9.06462 | 185° | 18km/h | 26507m | 8.3m/s | 0°C | 0% | 0hPa | 0V | 00:00:00 | 00:00:00 | 00:00:00 | |
| RDZ2B | 2026-09-03 12:46:51 | 41.48332 | 9.06573 | 240° | 51km/h | 26396m | 1.3m/s | 0°C | 0% | 0hPa | 0V | 00:00:00 | 00:00:00 | 00:00:00 | |
| RDZBGO | 2026-09-03 12:46:50 | 41.48340 | 9.06582 | 201° | 38km/h | 26391m | 8.6m/s | 0°C | 0% | 0hPa | 0V | 00:00:00 | 00:00:00 | 00:00:00 | |
| RDZBGO | 2026-09-03 12:46:28 | 41.48319 | 9.06665 | 85° | 35km/h | 26262m | 7.1m/s | 0°C | 0% | 0hPa | 0V | 00:00:00 | 00:00:00 | 00:00:00 | |
| RDZBGO | 2026-09-03 12:46:06 | 41.48276 | 9.06720 | 97° | 44km/h | 26136m | 6.2m/s | 0°C | 0% | 0hPa | 0V | 00:00:00 | 00:00:00 | 00:00:00 | |
| RDZ2B | 2026-09-03 12:45:52 | 41.48262 | 9.06729 | 127° | 33km/h | 26061m | 8.4m/s | 0°C | 0% | 0hPa | 0V | 00:00:00 | 00:00:00 | 00:00:00 | |
| RDZBGO | 2026-09-03 12:45:45 | 41.48258 | 9.06748 | 170° | 31km/h | 26025m | 7.6m/s | 0°C | 0% | 0hPa | 0V | 00:00:00 | 00:00:00 | 00:00:00 | |
| RDZ2B | 2026-09-03 12:45:23 | 41.48270 | 9.06740 | 170° | 42km/h | 25903m | 8.7m/s | 0°C | 0% | 0hPa | 0V | 00:00:00 | 00:00:00 | 00:00:00 | |
| RDZBGO | 2026-09-03 12:45:22 | 41.48279 | 9.06731 | 118° | 51km/h | 25896m | 6.2m/s | 0°C | 0% | 0hPa | 0V | 00:00:00 | 00:00:00 | 00:00:00 | |
| RDZBGO | 2026-09-03 12:44:58 | 41.48211 | 9.06705 | 255° | 46km/h | 25762m | 2.6m/s | 0°C | 0% | 0hPa | 0V | 00:00:00 | 00:00:00 | 00:00:00 | |
| RDZ2B | 2026-09-03 12:44:57 | 41.48215 | 9.06714 | 201° | 22km/h | 25760m | 2.1m/s | 0°C | 0% | 0hPa | 0V | 00:00:00 | 00:00:00 | 00:00:00 | |
| RDZBGO | 2026-09-03 12:44:36 | 41.48127 | 9.06799 | 243° | 47km/h | 25639m | 3.9m/s | 0°C | 0% | 0hPa | 0V | 00:00:00 | 00:00:00 | 00:00:00 | |
| RDZ2B | 2026-09-03 12:44:27 | 41.48119 | 9.06847 | 84° | 27km/h | 25587m | 10.3m/s | 0°C | 0% | 0hPa | 0V | 00:00:00 | 00:00:00 | 00:00:00 | |
| RDZBGO | 2026-09-03 12:44:15 | 41.48091 | 9.06921 | 214° | 37km/h | 25522m | 4.9m/s | 0°C | 0% | 0hPa | 0V | 00:00:00 | 00:00:00 | 00:00:00 | |
| RDZBGO | 2026-09-03 12:43:53 | 41.48092 | 9.07029 | 194° | 44km/h | 25403m | 6.7m/s | 0°C | 0% | 0hPa | 0V | 00:00:00 | 00:00:00 | 00:00:00 | |
| RDZ2B | 2026-09-03 12:43:38 | 41.48121 | 9.07053 | 169° | 37km/h | 25322m | 7.4m/s | 0°C | 0% | 0hPa | 0V | 00:00:00 | 00:00:00 | 00:00:00 | |
| RDZBGO | 2026-09-03 12:43:33 | 41.48118 | 9.07037 | 259° | 35km/h | 25290m | 5.8m/s | 0°C | 0% | 0hPa | 0V | 00:00:00 | 00:00:00 | 00:00:00 | |
| RDZ2B | 2026-09-03 12:43:16 | 41.48142 | 9.07016 | 171° | 44km/h | 25202m | 9.7m/s | 0°C | 0% | 0hPa | 0V | 00:00:00 | 00:00:00 | 00:00:00 | |
| RDZBGO | 2026-09-03 12:43:11 | 41.48142 | 9.06968 | 289° | 31km/h | 25173m | 7.9m/s | 0°C | 0% | 0hPa | 0V | 00:00:00 | 00:00:00 | 00:00:00 | |
| RDZBGO | 2026-09-03 12:42:49 | 41.48124 | 9.06868 | 228° | 27km/h | 25053m | 3.5m/s | 0°C | 0% | 0hPa | 0V | 00:00:00 | 00:00:00 | 00:00:00 | |
| RDZ2B | 2026-09-03 12:42:48 | 41.48129 | 9.06869 | 148° | 22km/h | 25051m | 1.4m/s | 0°C | 0% | 0hPa | 0V | 00:00:00 | 00:00:00 | 00:00:00 | |
| RDZBGO | 2026-09-03 12:42:28 | 41.48082 | 9.06800 | 278° | 29km/h | 24948m | 7.5m/s | 0°C | 0% | 0hPa | 0V | 00:00:00 | 00:00:00 | 00:00:00 | |
| RDZ2B | 2026-09-03 12:42:13 | 41.48047 | 9.06767 | 143° | 35km/h | 24866m | 5.1m/s | 0°C | 0% | 0hPa | 0V | 00:00:00 | 00:00:00 | 00:00:00 | |
| RDZBGO | 2026-09-03 12:42:00 | 41.47991 | 9.06747 | 146° | 31km/h | 24793m | 7.0m/s | 0°C | 0% | 0hPa | 0V | 00:00:00 | 00:00:00 | 00:00:00 | |
| RDZ2B | 2026-09-03 12:41:47 | 41.47929 | 9.06761 | 191° | 24km/h | 24722m | 6.6m/s | 0°C | 0% | 0hPa | 0V | 00:00:00 | 00:00:00 | 00:00:00 | |
| RDZBGO | 2026-09-03 12:41:35 | 41.47879 | 9.06780 | 281° | 42km/h | 24659m | 0.5m/s | 0°C | 0% | 0hPa | 0V | 00:00:00 | 00:00:00 | 00:00:00 | |
| RDZ2B | 2026-09-03 12:41:26 | 41.47871 | 9.06800 | 165° | 31km/h | 24611m | 5.7m/s | 0°C | 0% | 0hPa | 0V | 00:00:00 | 00:00:00 | 00:00:00 | |
| RDZBGO | 2026-09-03 12:41:13 | 41.47838 | 9.06795 | 205° | 33km/h | 24541m | 5.0m/s | 0°C | 0% | 0hPa | 0V | 00:00:00 | 00:00:00 | 00:00:00 | |
| RDZ2B | 2026-09-03 12:41:06 | 41.47827 | 9.06782 | 172° | 35km/h | 24503m | 6.3m/s | 0°C | 0% | 0hPa | 0V | 00:00:00 | 00:00:00 | 00:00:00 | |
| RDZBGO | 2026-09-03 12:40:52 | 41.47784 | 9.06738 | 116° | 26km/h | 24429m | 9.9m/s | 0°C | 0% | 0hPa | 0V | 00:00:00 | 00:00:00 | 00:00:00 | |
| RDZBGO | 2026-09-03 12:40:32 | 41.47673 | 9.06692 | 134° | 33km/h | 24324m | 3.7m/s | 0°C | 0% | 0hPa | 0V | 00:00:00 | 00:00:00 | 00:00:00 | |
| RDZBGO | 2026-09-03 12:40:11 | 41.47577 | 9.06660 | 148° | 18km/h | 24213m | 3.5m/s | 0°C | 0% | 0hPa | 0V | 00:00:00 | 00:00:00 | 00:00:00 | |
| RDZBGO | 2026-09-03 12:39:50 | 41.47524 | 9.06677 | 192° | 35km/h | 24106m | 8.3m/s | 0°C | 0% | 0hPa | 0V | 00:00:00 | 00:00:00 | 00:00:00 | |
| RDZ2B | 2026-09-03 12:39:44 | 41.47515 | 9.06691 | 227° | 46km/h | 24073m | 4.1m/s | 0°C | 0% | 0hPa | 0V | 00:00:00 | 00:00:00 | 00:00:00 | |
| RDZBGO | 2026-09-03 12:39:29 | 41.47508 | 9.06734 | 132° | 35km/h | 23998m | 8.0m/s | 0°C | 0% | 0hPa | 0V | 00:00:00 | 00:00:00 | 00:00:00 | |
| RDZBGO | 2026-09-03 12:39:04 | 41.47424 | 9.06741 | 238° | 42km/h | 23868m | 3.3m/s | 0°C | 0% | 0hPa | 0V | 00:00:00 | 00:00:00 | 00:00:00 | |
| RDZ2B | 2026-09-03 12:38:51 | 41.47397 | 9.06743 | 255° | 46km/h | 23799m | 5.2m/s | 0°C | 0% | 0hPa | 0V | 00:00:00 | 00:00:00 | 00:00:00 | |
| RDZBGO | 2026-09-03 12:38:44 | 41.47379 | 9.06743 | 271° | 42km/h | 23763m | 6.8m/s | 0°C | 0% | 0hPa | 0V | 00:00:00 | 00:00:00 | 00:00:00 | |
| RDZ2B | 2026-09-03 12:38:23 | 41.47352 | 9.06797 | 197° | 38km/h | 23658m | 2.5m/s | 0°C | 0% | 0hPa | 0V | 00:00:00 | 00:00:00 | 00:00:00 | |
| IW2NTF | 2026-09-03 12:38:15 | 41.47347 | 9.06820 | 165° | 31km/h | 23590m | 2.2m/s | 0°C | 0% | 0hPa | 0V | 00:00:00 | 00:00:00 | 00:00:00 | |
| RDZBGO | 2026-09-03 12:38:00 | 41.47336 | 9.06798 | 333° | 42km/h | 23536m | 2.5m/s | 0°C | 0% | 0hPa | 0V | 00:00:00 | 00:00:00 | 00:00:00 | |
| IW2NTF | 2026-09-03 12:37:58 | 41.47338 | 9.06798 | 314° | 40km/h | 23499m | 4.8m/s | 0°C | 0% | 0hPa | 0V | 00:00:00 | 00:00:00 | 00:00:00 | |
| IW2NTF | 2026-09-03 12:37:40 | 41.47312 | 9.06831 | 182° | 33km/h | 23408m | 7.3m/s | 0°C | 0% | 0hPa | 0V | 00:00:00 | 00:00:00 | 00:00:00 | |
| RDZBGO | 2026-09-03 12:37:39 | 41.47314 | 9.06808 | 331° | 53km/h | 23423m | 1.4m/s | 0°C | 0% | 0hPa | 0V | 00:00:00 | 00:00:00 | 00:00:00 | |
| RDZBGO | 2026-09-03 12:37:17 | 41.47230 | 9.06881 | 230° | 33km/h | 23313m | 6.8m/s | 0°C | 0% | 0hPa | 0V | 00:00:00 | 00:00:00 | 00:00:00 | |
| RDZBGO | 2026-09-03 12:36:52 | 41.47145 | 9.06937 | 233° | 35km/h | 23181m | 2.6m/s | 0°C | 0% | 0hPa | 0V | 00:00:00 | 00:00:00 | 00:00:00 | |
| RDZBGO | 2026-09-03 12:36:32 | 41.47071 | 9.07010 | 250° | 40km/h | 23077m | 3.3m/s | 0°C | 0% | 0hPa | 0V | 00:00:00 | 00:00:00 | 00:00:00 | |
| RDZBGO | 2026-09-03 12:36:12 | 41.46964 | 9.07133 | 228° | 31km/h | 22974m | 8.0m/s | 0°C | 0% | 0hPa | 0V | 00:00:00 | 00:00:00 | 00:00:00 | |
| RDZBGO | 2026-09-03 12:35:50 | 41.46888 | 9.07289 | 37° | 20km/h | 22864m | 5.6m/s | 0°C | 0% | 0hPa | 0V | 00:00:00 | 00:00:00 | 00:00:00 | |
| RDZ2B | 2026-09-03 12:35:39 | 41.46849 | 9.07385 | 209° | 33km/h | 22806m | 8.9m/s | 0°C | 0% | 0hPa | 0V | 00:00:00 | 00:00:00 | 00:00:00 | |
| RDZBGO | 2026-09-03 12:35:27 | 41.46812 | 9.07470 | 248° | 44km/h | 22747m | 9.9m/s | 0°C | 0% | 0hPa | 0V | 00:00:00 | 00:00:00 | 00:00:00 | |
| RDZBGO | 2026-09-03 12:35:06 | 41.46807 | 9.07596 | 149° | 31km/h | 22639m | 3.3m/s | 0°C | 0% | 0hPa | 0V | 00:00:00 | 00:00:00 | 00:00:00 | |
| RDZ2B | 2026-09-03 12:34:55 | 41.46792 | 9.07644 | 267° | 57km/h | 22583m | 3.2m/s | 0°C | 0% | 0hPa | 0V | 00:00:00 | 00:00:00 | 00:00:00 | |
| RDZBGO | 2026-09-03 12:34:42 | 41.46804 | 9.07705 | 256° | 51km/h | 22514m | 6.4m/s | 0°C | 0% | 0hPa | 0V | 00:00:00 | 00:00:00 | 00:00:00 | |
| RDZ2B | 2026-09-03 12:34:35 | 41.46814 | 9.07740 | 236° | 46km/h | 22480m | 4.2m/s | 0°C | 0% | 0hPa | 0V | 00:00:00 | 00:00:00 | 00:00:00 | |
| RDZBGO | 2026-09-03 12:34:22 | 41.46829 | 9.07780 | 253° | 37km/h | 22410m | 4.3m/s | 0°C | 0% | 0hPa | 0V | 00:00:00 | 00:00:00 | 00:00:00 | |
| RDZ2B | 2026-09-03 12:34:11 | 41.46852 | 9.07793 | 99° | 9km/h | 22353m | 4.1m/s | 0°C | 0% | 0hPa | 0V | 00:00:00 | 00:00:00 | 00:00:00 | |
| RDZBGO | 2026-09-03 12:34:01 | 41.46872 | 9.07804 | 193° | 9km/h | 22299m | 6.6m/s | 0°C | 0% | 0hPa | 0V | 00:00:00 | 00:00:00 | 00:00:00 | |
| RDZ2B | 2026-09-03 12:33:50 | 41.46892 | 9.07800 | 213° | 5km/h | 22244m | 1.5m/s | 0°C | 0% | 0hPa | 0V | 00:00:00 | 00:00:00 | 00:00:00 | |
| RDZBGO | 2026-09-03 12:33:40 | 41.46919 | 9.07769 | 94° | 47km/h | 22192m | 3.8m/s | 0°C | 0% | 0hPa | 0V | 00:00:00 | 00:00:00 | 00:00:00 | |
| RDZ2B | 2026-09-03 12:33:28 | 41.46952 | 9.07730 | 163° | 20km/h | 22134m | 4.1m/s | 0°C | 0% | 0hPa | 0V | 00:00:00 | 00:00:00 | 00:00:00 | |
| RDZBGO | 2026-09-03 12:33:19 | 41.46968 | 9.07694 | 72° | 27km/h | 22089m | 2.0m/s | 0°C | 0% | 0hPa | 0V | 00:00:00 | 00:00:00 | 00:00:00 | |
| RDZ2B | 2026-09-03 12:33:01 | 41.46969 | 9.07675 | 173° | 26km/h | 22000m | 2.2m/s | 0°C | 0% | 0hPa | 0V | 00:00:00 | 00:00:00 | 00:00:00 | |
| RDZBGO | 2026-09-03 12:32:58 | 41.46968 | 9.07655 | 27° | 37km/h | 21984m | 4.1m/s | 0°C | 0% | 0hPa | 0V | 00:00:00 | 00:00:00 | 00:00:00 | |
| RDZ2B | 2026-09-03 12:32:41 | 41.46929 | 9.07631 | 222° | 16km/h | 21896m | 2.6m/s | 0°C | 0% | 0hPa | 0V | 00:00:00 | 00:00:00 | 00:00:00 | |
| RDZBGO | 2026-09-03 12:32:36 | 41.46906 | 9.07609 | 11° | 24km/h | 21872m | 6.1m/s | 0°C | 0% | 0hPa | 0V | 00:00:00 | 00:00:00 | 00:00:00 | |
| RDZBGO | 2026-09-03 12:32:15 | 41.46848 | 9.07591 | 254° | 7km/h | 21764m | 5.3m/s | 0°C | 0% | 0hPa | 0V | 00:00:00 | 00:00:00 | 00:00:00 | |
| RDZBGO | 2026-09-03 12:31:54 | 41.46825 | 9.07666 | 174° | 20km/h | 21663m | 2.6m/s | 0°C | 0% | 0hPa | 0V | 00:00:00 | 00:00:00 | 00:00:00 | |
| RDZ2B | 2026-09-03 12:31:48 | 41.46819 | 9.07693 | 198° | 38km/h | 21633m | 1.9m/s | 0°C | 0% | 0hPa | 0V | 00:00:00 | 00:00:00 | 00:00:00 | |
| RDZBGO | 2026-09-03 12:31:35 | 41.46825 | 9.07749 | 166° | 38km/h | 21566m | 3.4m/s | 0°C | 0% | 0hPa | 0V | 00:00:00 | 00:00:00 | 00:00:00 | |
| RDZ2B | 2026-09-03 12:31:27 | 41.46827 | 9.07765 | 149° | 35km/h | 21533m | 3.4m/s | 0°C | 0% | 0hPa | 0V | 00:00:00 | 00:00:00 | 00:00:00 | |
| RDZBGO | 2026-09-03 12:31:13 | 41.46844 | 9.07779 | 105° | 37km/h | 21465m | 3.5m/s | 0°C | 0% | 0hPa | 0V | 00:00:00 | 00:00:00 | 00:00:00 | |
| RDZ2B | 2026-09-03 12:31:07 | 41.46857 | 9.07786 | 130° | 38km/h | 21438m | 1.3m/s | 0°C | 0% | 0hPa | 0V | 00:00:00 | 00:00:00 | 00:00:00 | |
| RDZBGO | 2026-09-03 12:30:52 | 41.46878 | 9.07764 | 46° | 33km/h | 21364m | 5.0m/s | 0°C | 0% | 0hPa | 0V | 00:00:00 | 00:00:00 | 00:00:00 | |
| RDZ2B | 2026-09-03 12:30:45 | 41.46886 | 9.07758 | 24° | 13km/h | 21334m | 5.8m/s | 0°C | 0% | 0hPa | 0V | 00:00:00 | 00:00:00 | 00:00:00 | |
| RDZBGO | 2026-09-03 12:30:32 | 41.46890 | 9.07716 | 350° | 22km/h | 21271m | 7.5m/s | 0°C | 0% | 0hPa | 0V | 00:00:00 | 00:00:00 | 00:00:00 | |
| RDZ2B | 2026-09-03 12:30:24 | 41.46873 | 9.07694 | 5° | 13km/h | 21234m | 3.8m/s | 0°C | 0% | 0hPa | 0V | 00:00:00 | 00:00:00 | 00:00:00 | |
| RDZBGO | 2026-09-03 12:30:11 | 41.46855 | 9.07668 | 12° | 9km/h | 21172m | 4.2m/s | 0°C | 0% | 0hPa | 0V | 00:00:00 | 00:00:00 | 00:00:00 | |
| RDZ2B | 2026-09-03 12:29:53 | 41.46825 | 9.07596 | 21° | 16km/h | 21084m | 3.8m/s | 0°C | 0% | 0hPa | 0V | 00:00:00 | 00:00:00 | 00:00:00 | |
| RDZBGO | 2026-09-03 12:29:51 | 41.46822 | 9.07594 | 107° | 2km/h | 21074m | 3.7m/s | 0°C | 0% | 0hPa | 0V | 00:00:00 | 00:00:00 | 00:00:00 | |
| RDZBGO | 2026-09-03 12:29:30 | 41.46746 | 9.07551 | 350° | 33km/h | 20974m | 7.4m/s | 0°C | 0% | 0hPa | 0V | 00:00:00 | 00:00:00 | 00:00:00 | |
| RDZ2B | 2026-09-03 12:29:28 | 41.46730 | 9.07555 | 354° | 22km/h | 20965m | 4.6m/s | 0°C | 0% | 0hPa | 0V | 00:00:00 | 00:00:00 | 00:00:00 | |
| RDZBGO | 2026-09-03 12:29:10 | 41.46659 | 9.07554 | 360° | 35km/h | 20881m | 5.9m/s | 0°C | 0% | 0hPa | 0V | 00:00:00 | 00:00:00 | 00:00:00 | |
| RDZBGO | 2026-09-03 12:28:49 | 41.46608 | 9.07588 | 30° | 24km/h | 20782m | 5.9m/s | 0°C | 0% | 0hPa | 0V | 00:00:00 | 00:00:00 | 00:00:00 | |
| RDZ2B | 2026-09-03 12:28:29 | 41.46588 | 9.07603 | 134° | 11km/h | 20686m | 5.6m/s | 0°C | 0% | 0hPa | 0V | 00:00:00 | 00:00:00 | 00:00:00 | |
| RDZBGO | 2026-09-03 12:28:28 | 41.46590 | 9.07600 | 117° | 13km/h | 20681m | 2.8m/s | 0°C | 0% | 0hPa | 0V | 00:00:00 | 00:00:00 | 00:00:00 | |
| RDZBGO | 2026-09-03 12:28:07 | 41.46625 | 9.07639 | 260° | 16km/h | 20583m | 4.5m/s | 0°C | 0% | 0hPa | 0V | 00:00:00 | 00:00:00 | 00:00:00 | |
| RDZBGO | 2026-09-03 12:27:47 | 41.46652 | 9.07693 | 241° | 20km/h | 20490m | 3.5m/s | 0°C | 0% | 0hPa | 0V | 00:00:00 | 00:00:00 | 00:00:00 | |
| RDZ2B | 2026-09-03 12:27:33 | 41.46667 | 9.07734 | 135° | 15km/h | 20419m | 4.1m/s | 0°C | 0% | 0hPa | 0V | 00:00:00 | 00:00:00 | 00:00:00 | |
| RDZBGO | 2026-09-03 12:27:26 | 41.46686 | 9.07738 | 114° | 15km/h | 20392m | 4.5m/s | 0°C | 0% | 0hPa | 0V | 00:00:00 | 00:00:00 | 00:00:00 | |
| RDZBGO | 2026-09-03 12:27:06 | 41.46777 | 9.07669 | 91° | 33km/h | 20301m | 3.4m/s | 0°C | 0% | 0hPa | 0V | 00:00:00 | 00:00:00 | 00:00:00 | |
| RDZBGO | 2026-09-03 12:26:45 | 41.46825 | 9.07590 | 19° | 11km/h | 20208m | 3.5m/s | 0°C | 0% | 0hPa | 0V | 00:00:00 | 00:00:00 | 00:00:00 | |
| RDZBGO | 2026-09-03 12:26:24 | 41.46861 | 9.07565 | 291° | 20km/h | 20111m | 1.8m/s | 0°C | 0% | 0hPa | 0V | 00:00:00 | 00:00:00 | 00:00:00 | |
| RDZBGO | 2026-09-03 12:26:03 | 41.46888 | 9.07588 | 249° | 15km/h | 20011m | 5.6m/s | 0°C | 0% | 0hPa | 0V | 00:00:00 | 00:00:00 | 00:00:00 | |
| RDZBGO | 2026-09-03 12:25:42 | 41.46916 | 9.07627 | 234° | 18km/h | 19912m | 6.0m/s | 0°C | 0% | 0hPa | 0V | 00:00:00 | 00:00:00 | 00:00:00 | |
| RDZBGO | 2026-09-03 12:25:21 | 41.46981 | 9.07630 | 214° | 22km/h | 19819m | 2.9m/s | 0°C | 0% | 0hPa | 0V | 00:00:00 | 00:00:00 | 00:00:00 | |
| RDZBGO | 2026-09-03 12:25:00 | 41.47069 | 9.07547 | 130° | 18km/h | 19724m | 3.5m/s | 0°C | 0% | 0hPa | 0V | 00:00:00 | 00:00:00 | 00:00:00 | |
| RDZBGO | 2026-09-03 12:24:39 | 41.47133 | 9.07462 | 118° | 16km/h | 19625m | 5.2m/s | 0°C | 0% | 0hPa | 0V | 00:00:00 | 00:00:00 | 00:00:00 | |
| RDZBGO | 2026-09-03 12:24:18 | 41.47153 | 9.07395 | 171° | 5km/h | 19529m | 6.1m/s | 0°C | 0% | 0hPa | 0V | 00:00:00 | 00:00:00 | 00:00:00 | |
| RDZBGO | 2026-09-03 12:23:57 | 41.47190 | 9.07399 | 209° | 18km/h | 19429m | 5.5m/s | 0°C | 0% | 0hPa | 0V | 00:00:00 | 00:00:00 | 00:00:00 | |
| RDZBGO | 2026-09-03 12:23:37 | 41.47248 | 9.07429 | 204° | 29km/h | 19342m | 5.4m/s | 0°C | 0% | 0hPa | 0V | 00:00:00 | 00:00:00 | 00:00:00 | |
| RDZBGO | 2026-09-03 12:23:16 | 41.47357 | 9.07482 | 173° | 40km/h | 19248m | 6.7m/s | 0°C | 0% | 0hPa | 0V | 00:00:00 | 00:00:00 | 00:00:00 | |
| RDZBGO | 2026-09-03 12:22:55 | 41.47486 | 9.07508 | 185° | 27km/h | 19154m | 4.2m/s | 0°C | 0% | 0hPa | 0V | 00:00:00 | 00:00:00 | 00:00:00 | |
| IW2NTF | 2026-09-03 12:22:36 | 41.47640 | 9.07511 | 174° | 33km/h | 19045m | 4.2m/s | 0°C | 0% | 0hPa | 0V | 00:00:00 | 00:00:00 | 00:00:00 | |
| RDZBGO | 2026-09-03 12:22:34 | 41.47615 | 9.07508 | 186° | 20km/h | 19059m | 4.3m/s | 0°C | 0% | 0hPa | 0V | 00:00:00 | 00:00:00 | 00:00:00 | |
| RDZBGO | 2026-09-03 12:22:14 | 41.47732 | 9.07447 | 164° | 26km/h | 18967m | 5.6m/s | 0°C | 0% | 0hPa | 0V | 00:00:00 | 00:00:00 | 00:00:00 | |
| RDZBGO | 2026-09-03 12:21:54 | 41.47826 | 9.07362 | 149° | 29km/h | 18876m | 3.5m/s | 0°C | 0% | 0hPa | 0V | 00:00:00 | 00:00:00 | 00:00:00 | |
| RDZBGO | 2026-09-03 12:21:33 | 41.47857 | 9.07264 | 112° | 27km/h | 18773m | 6.2m/s | 0°C | 0% | 0hPa | 0V | 00:00:00 | 00:00:00 | 00:00:00 | |
| IW2NTF | 2026-09-03 12:21:26 | 41.47880 | 9.07220 | 129° | 24km/h | 18731m | 5m/s | 0°C | 0% | 0hPa | 0V | 00:00:00 | 00:00:00 | 00:00:00 | |
| RDZBGO | 2026-09-03 12:21:13 | 41.47905 | 9.07166 | 130° | 11km/h | 18676m | 5.9m/s | 0°C | 0% | 0hPa | 0V | 00:00:00 | 00:00:00 | 00:00:00 | |
| RDZBGO | 2026-09-03 12:20:51 | 41.47942 | 9.07008 | 89° | 33km/h | 18579m | 5.2m/s | 0°C | 0% | 0hPa | 0V | 00:00:00 | 00:00:00 | 00:00:00 | |
| RDZ2B | 2026-09-03 12:20:33 | 41.47952 | 9.06868 | 24° | 15km/h | 18491m | 4.3m/s | 0°C | 0% | 0hPa | 0V | 00:00:00 | 00:00:00 | 00:00:00 | |
| RDZBGO | 2026-09-03 12:20:31 | 41.47951 | 9.06859 | 111° | 24km/h | 18481m | 6.1m/s | 0°C | 0% | 0hPa | 0V | 00:00:00 | 00:00:00 | 00:00:00 | |
| RDZBGO | 2026-09-03 12:20:10 | 41.47966 | 9.06737 | 114° | 35km/h | 18382m | 1.2m/s | 0°C | 0% | 0hPa | 0V | 00:00:00 | 00:00:00 | 00:00:00 | |
| RDZBGO | 2026-09-03 12:19:48 | 41.47997 | 9.06681 | 67° | 4km/h | 18279m | 3.4m/s | 0°C | 0% | 0hPa | 0V | 00:00:00 | 00:00:00 | 00:00:00 | |
| RDZ2B | 2026-09-03 12:19:34 | 41.48047 | 9.06656 | 58° | 13km/h | 18214m | 3.1m/s | 0°C | 0% | 0hPa | 0V | 00:00:00 | 00:00:00 | 00:00:00 | |
| RDZBGO | 2026-09-03 12:19:28 | 41.48080 | 9.06662 | 221° | 9km/h | 18186m | 4.0m/s | 0°C | 0% | 0hPa | 0V | 00:00:00 | 00:00:00 | 00:00:00 | |
| RDZBGO | 2026-09-03 12:19:07 | 41.48212 | 9.06627 | 171° | 29km/h | 18089m | 4.4m/s | 0°C | 0% | 0hPa | 0V | 00:00:00 | 00:00:00 | 00:00:00 | |
| RDZ2B | 2026-09-03 12:18:58 | 41.48259 | 9.06610 | 170° | 11km/h | 18047m | 3.7m/s | 0°C | 0% | 0hPa | 0V | 00:00:00 | 00:00:00 | 00:00:00 | |
| RDZBGO | 2026-09-03 12:18:46 | 41.48301 | 9.06566 | 335° | 9km/h | 17992m | 4.2m/s | 0°C | 0% | 0hPa | 0V | 00:00:00 | 00:00:00 | 00:00:00 | |
| RDZ2B | 2026-09-03 12:18:32 | 41.48340 | 9.06521 | 303° | 13km/h | 17930m | 4.1m/s | 0°C | 0% | 0hPa | 0V | 00:00:00 | 00:00:00 | 00:00:00 | |
| RDZBGO | 2026-09-03 12:18:26 | 41.48369 | 9.06502 | 177° | 11km/h | 17897m | 5.6m/s | 0°C | 0% | 0hPa | 0V | 00:00:00 | 00:00:00 | 00:00:00 | |
| RDZ2B | 2026-09-03 12:18:10 | 41.48458 | 9.06471 | 150° | 22km/h | 17829m | 6.1m/s | 0°C | 0% | 0hPa | 0V | 00:00:00 | 00:00:00 | 00:00:00 | |
| RDZBGO | 2026-09-03 12:18:05 | 41.48489 | 9.06458 | 168° | 31km/h | 17806m | 4.7m/s | 0°C | 0% | 0hPa | 0V | 00:00:00 | 00:00:00 | 00:00:00 | |
| RDZ2B | 2026-09-03 12:17:49 | 41.48603 | 9.06403 | 154° | 20km/h | 17738m | 4.1m/s | 0°C | 0% | 0hPa | 0V | 00:00:00 | 00:00:00 | 00:00:00 | |
| RDZBGO | 2026-09-03 12:17:44 | 41.48648 | 9.06401 | 134° | 46km/h | 17716m | 3.3m/s | 0°C | 0% | 0hPa | 0V | 00:00:00 | 00:00:00 | 00:00:00 | |
| RDZ2B | 2026-09-03 12:17:27 | 41.48792 | 9.06373 | 197° | 58km/h | 17648m | 2.3m/s | 0°C | 0% | 0hPa | 0V | 00:00:00 | 00:00:00 | 00:00:00 | |
| RDZBGO | 2026-09-03 12:17:22 | 41.48833 | 9.06345 | 127° | 22km/h | 17628m | 4.6m/s | 0°C | 0% | 0hPa | 0V | 00:00:00 | 00:00:00 | 00:00:00 | |
| RDZ2B | 2026-09-03 12:17:05 | 41.49009 | 9.06310 | 186° | 51km/h | 17543m | 6.1m/s | 0°C | 0% | 0hPa | 0V | 00:00:00 | 00:00:00 | 00:00:00 | |
| RDZBGO | 2026-09-03 12:17:01 | 41.49063 | 9.06300 | 180° | 46km/h | 17522m | 5.0m/s | 0°C | 0% | 0hPa | 0V | 00:00:00 | 00:00:00 | 00:00:00 | |
| RDZ2B | 2026-09-03 12:16:44 | 41.49310 | 9.06229 | 158° | 69km/h | 17456m | 2.9m/s | 0°C | 0% | 0hPa | 0V | 00:00:00 | 00:00:00 | 00:00:00 | |
| RDZBGO | 2026-09-03 12:16:41 | 41.49345 | 9.06210 | 170° | 44km/h | 17444m | 3.2m/s | 0°C | 0% | 0hPa | 0V | 00:00:00 | 00:00:00 | 00:00:00 | |
| RDZ2B | 2026-09-03 12:16:23 | 41.49575 | 9.06073 | 153° | 51km/h | 17368m | 3.3m/s | 0°C | 0% | 0hPa | 0V | 00:00:00 | 00:00:00 | 00:00:00 | |
| RDZBGO | 2026-09-03 12:16:20 | 41.49616 | 9.06032 | 142° | 68km/h | 17354m | 2.6m/s | 0°C | 0% | 0hPa | 0V | 00:00:00 | 00:00:00 | 00:00:00 | |
| RDZ2B | 2026-09-03 12:16:04 | 41.49815 | 9.05865 | 155° | 68km/h | 17280m | 5.4m/s | 0°C | 0% | 0hPa | 0V | 00:00:00 | 00:00:00 | 00:00:00 | |
| RDZBGO | 2026-09-03 12:16:00 | 41.49858 | 9.05827 | 132° | 57km/h | 17268m | 5.9m/s | 0°C | 0% | 0hPa | 0V | 00:00:00 | 00:00:00 | 00:00:00 | |
| RDZ2B | 2026-09-03 12:15:42 | 41.50036 | 9.05594 | 132° | 53km/h | 17187m | 5.1m/s | 0°C | 0% | 0hPa | 0V | 00:00:00 | 00:00:00 | 00:00:00 | |
| RDZBGO | 2026-09-03 12:15:40 | 41.50050 | 9.05567 | 127° | 46km/h | 17179m | 4.2m/s | 0°C | 0% | 0hPa | 0V | 00:00:00 | 00:00:00 | 00:00:00 | |
| RDZBGO | 2026-09-03 12:15:20 | 41.50214 | 9.05338 | 119° | 44km/h | 17082m | 5.5m/s | 0°C | 0% | 0hPa | 0V | 00:00:00 | 00:00:00 | 00:00:00 | |
| RDZ2B | 2026-09-03 12:15:18 | 41.50219 | 9.05326 | 116° | 42km/h | 17078m | 3.0m/s | 0°C | 0% | 0hPa | 0V | 00:00:00 | 00:00:00 | 00:00:00 | |
| RDZBGO | 2026-09-03 12:14:59 | 41.50353 | 9.05146 | 128° | 38km/h | 16992m | 5.7m/s | 0°C | 0% | 0hPa | 0V | 00:00:00 | 00:00:00 | 00:00:00 | |
| RDZ2B | 2026-09-03 12:14:56 | 41.50370 | 9.05120 | 119° | 35km/h | 16977m | 6.0m/s | 0°C | 0% | 0hPa | 0V | 00:00:00 | 00:00:00 | 00:00:00 | |
| RDZBGO | 2026-09-03 12:14:39 | 41.50439 | 9.04933 | 104° | 44km/h | 16899m | 4.3m/s | 0°C | 0% | 0hPa | 0V | 00:00:00 | 00:00:00 | 00:00:00 | |
| RDZBGO | 2026-09-03 12:14:18 | 41.50517 | 9.04695 | 106° | 22km/h | 16805m | 3.7m/s | 0°C | 0% | 0hPa | 0V | 00:00:00 | 00:00:00 | 00:00:00 | |
| RDZBGO | 2026-09-03 12:13:57 | 41.50577 | 9.04472 | 137° | 46km/h | 16712m | 4.9m/s | 0°C | 0% | 0hPa | 0V | 00:00:00 | 00:00:00 | 00:00:00 | |
| RDZBGO | 2026-09-03 12:13:36 | 41.50657 | 9.04284 | 152° | 31km/h | 16615m | 4.3m/s | 0°C | 0% | 0hPa | 0V | 00:00:00 | 00:00:00 | 00:00:00 | |
| RDZBGO | 2026-09-03 12:13:15 | 41.50748 | 9.04151 | 155° | 24km/h | 16511m | 5.6m/s | 0°C | 0% | 0hPa | 0V | 00:00:00 | 00:00:00 | 00:00:00 | |
| RDZBGO | 2026-09-03 12:12:54 | 41.50858 | 9.04070 | 158° | 31km/h | 16415m | 4.6m/s | 0°C | 0% | 0hPa | 0V | 00:00:00 | 00:00:00 | 00:00:00 | |
| RDZBGO | 2026-09-03 12:12:34 | 41.50989 | 9.04021 | 165° | 16km/h | 16329m | 3.7m/s | 0°C | 0% | 0hPa | 0V | 00:00:00 | 00:00:00 | 00:00:00 | |
| RDZBGO | 2026-09-03 12:12:14 | 41.51193 | 9.03989 | 172° | 51km/h | 16233m | 2.7m/s | 0°C | 0% | 0hPa | 0V | 00:00:00 | 00:00:00 | 00:00:00 | |
| RDZBGO | 2026-09-03 12:11:32 | 41.51654 | 9.03789 | 160° | 62km/h | 16059m | 3.7m/s | 0°C | 0% | 0hPa | 0V | 00:00:00 | 00:00:00 | 00:00:00 | |
| RDZBGO | 2026-09-03 12:11:10 | 41.51902 | 9.03533 | 145° | 68km/h | 15968m | 3.8m/s | 0°C | 0% | 0hPa | 0V | 00:00:00 | 00:00:00 | 00:00:00 | |
| RDZ2B | 2026-09-03 12:10:54 | 41.52088 | 9.03362 | 154° | 62km/h | 15901m | 5.1m/s | 0°C | 0% | 0hPa | 0V | 00:00:00 | 00:00:00 | 00:00:00 | |
| RDZBGO | 2026-09-03 12:10:49 | 41.52148 | 9.03306 | 147° | 57km/h | 15878m | 4.8m/s | 0°C | 0% | 0hPa | 0V | 00:00:00 | 00:00:00 | 00:00:00 | |
| RDZBGO | 2026-09-03 12:10:29 | 41.52420 | 9.03041 | 137° | 58km/h | 15795m | 4.3m/s | 0°C | 0% | 0hPa | 0V | 00:00:00 | 00:00:00 | 00:00:00 | |
| RDZ2B | 2026-09-03 12:10:28 | 41.52431 | 9.03027 | 139° | 60km/h | 15791m | 3.7m/s | 0°C | 0% | 0hPa | 0V | 00:00:00 | 00:00:00 | 00:00:00 | |
| RDZBGO | 2026-09-03 12:10:08 | 41.52684 | 9.02725 | 137° | 58km/h | 15708m | 5.0m/s | 0°C | 0% | 0hPa | 0V | 00:00:00 | 00:00:00 | 00:00:00 | |
| RDZBGO | 2026-09-03 12:09:49 | 41.52905 | 9.02438 | 142° | 64km/h | 15625m | 3.5m/s | 0°C | 0% | 0hPa | 0V | 00:00:00 | 00:00:00 | 00:00:00 | |
| RDZBGO | 2026-09-03 12:09:27 | 41.53121 | 9.02206 | 163° | 60km/h | 15536m | 4.8m/s | 0°C | 0% | 0hPa | 0V | 00:00:00 | 00:00:00 | 00:00:00 | |
| RDZBGO | 2026-09-03 12:09:06 | 41.53385 | 9.02019 | 146° | 55km/h | 15447m | 3.7m/s | 0°C | 0% | 0hPa | 0V | 00:00:00 | 00:00:00 | 00:00:00 | |
| RDZBGO | 2026-09-03 12:08:46 | 41.53665 | 9.01793 | 145° | 68km/h | 15363m | 5.3m/s | 0°C | 0% | 0hPa | 0V | 00:00:00 | 00:00:00 | 00:00:00 | |
| RDZ2B | 2026-09-03 12:08:37 | 41.53800 | 9.01663 | 142° | 66km/h | 15322m | 5.4m/s | 0°C | 0% | 0hPa | 0V | 00:00:00 | 00:00:00 | 00:00:00 | |
| RDZBGO | 2026-09-03 12:08:24 | 41.53963 | 9.01484 | 134° | 75km/h | 15271m | 4.2m/s | 0°C | 0% | 0hPa | 0V | 00:00:00 | 00:00:00 | 00:00:00 | |
| RDZBGO | 2026-09-03 12:08:03 | 41.54249 | 9.01155 | 141° | 77km/h | 15183m | 4.6m/s | 0°C | 0% | 0hPa | 0V | 00:00:00 | 00:00:00 | 00:00:00 | |
| RDZ2B | 2026-09-03 12:07:55 | 41.54356 | 9.01028 | 141° | 66km/h | 15149m | 2.5m/s | 0°C | 0% | 0hPa | 0V | 00:00:00 | 00:00:00 | 00:00:00 | |
| RDZBGO | 2026-09-03 12:07:42 | 41.54513 | 9.00812 | 133° | 71km/h | 15093m | 3.6m/s | 0°C | 0% | 0hPa | 0V | 00:00:00 | 00:00:00 | 00:00:00 | |
| RDZBGO | 2026-09-03 12:07:21 | 41.54743 | 9.00481 | 128° | 71km/h | 15005m | 2.6m/s | 0°C | 0% | 0hPa | 0V | 00:00:00 | 00:00:00 | 00:00:00 | |
| RDZBGO | 2026-09-03 12:07:00 | 41.54960 | 9.00187 | 134° | 60km/h | 14918m | 5.4m/s | 0°C | 0% | 0hPa | 0V | 00:00:00 | 00:00:00 | 00:00:00 | |
| RDZBGO | 2026-09-03 12:06:25 | 41.55273 | 8.99746 | 141° | 46km/h | 14769m | 2.8m/s | 0°C | 0% | 0hPa | 0V | 00:00:00 | 00:00:00 | 00:00:00 | |
| RDZBGO | 2026-09-03 12:06:02 | 41.55473 | 8.99490 | 136° | 51km/h | 14670m | 5.5m/s | 0°C | 0% | 0hPa | 0V | 00:00:00 | 00:00:00 | 00:00:00 | |
| RDZBGO | 2026-09-03 12:05:39 | 41.55719 | 8.99238 | 146° | 47km/h | 14570m | 4.9m/s | 0°C | 0% | 0hPa | 0V | 00:00:00 | 00:00:00 | 00:00:00 | |
| RDZBGO | 2026-09-03 12:05:18 | 41.55937 | 8.98977 | 149° | 51km/h | 14475m | 5.2m/s | 0°C | 0% | 0hPa | 0V | 00:00:00 | 00:00:00 | 00:00:00 | |
| RDZBGO | 2026-09-03 12:04:53 | 41.56224 | 8.98710 | 153° | 64km/h | 14366m | 3.5m/s | 0°C | 0% | 0hPa | 0V | 00:00:00 | 00:00:00 | 00:00:00 | |
| RDZ2B | 2026-09-03 12:04:30 | 41.56531 | 8.98512 | 157° | 57km/h | 14267m | 3.2m/s | 0°C | 0% | 0hPa | 0V | 00:00:00 | 00:00:00 | 00:00:00 | |
| RDZBGO | 2026-09-03 12:03:48 | 41.57158 | 8.98072 | 158° | 91km/h | 14091m | 3.9m/s | 0°C | 0% | 0hPa | 0V | 00:00:00 | 00:00:00 | 00:00:00 | |
| RDZBGO | 2026-09-03 12:03:27 | 41.57513 | 8.97823 | 158° | 80km/h | 14004m | 5.1m/s | 0°C | 0% | 0hPa | 0V | 00:00:00 | 00:00:00 | 00:00:00 | |
| RDZBGO | 2026-09-03 12:03:06 | 41.57880 | 8.97612 | 168° | 73km/h | 13918m | 3.5m/s | 0°C | 0% | 0hPa | 0V | 00:00:00 | 00:00:00 | 00:00:00 | |
| RDZBGO | 2026-09-03 12:02:41 | 41.58284 | 8.97393 | 160° | 64km/h | 13816m | 4.7m/s | 0°C | 0% | 0hPa | 0V | 00:00:00 | 00:00:00 | 00:00:00 | |
| RDZ2B | 2026-09-03 12:02:23 | 41.58553 | 8.97221 | 154° | 60km/h | 13746m | 3.4m/s | 0°C | 0% | 0hPa | 0V | 00:00:00 | 00:00:00 | 00:00:00 | |
| RDZBGO | 2026-09-03 12:02:18 | 41.58627 | 8.97170 | 153° | 60km/h | 13724m | 3.4m/s | 0°C | 0% | 0hPa | 0V | 00:00:00 | 00:00:00 | 00:00:00 | |
| RDZBGO | 2026-09-03 12:01:57 | 41.58961 | 8.96953 | 161° | 80km/h | 13638m | 4.6m/s | 0°C | 0% | 0hPa | 0V | 00:00:00 | 00:00:00 | 00:00:00 | |
| RDZ2B | 2026-09-03 12:01:52 | 41.59052 | 8.96904 | 163° | 78km/h | 13616m | 5.8m/s | 0°C | 0% | 0hPa | 0V | 00:00:00 | 00:00:00 | 00:00:00 | |
| RDZBGO | 2026-09-03 12:01:34 | 41.59397 | 8.96711 | 155° | 80km/h | 13538m | 5.0m/s | 0°C | 0% | 0hPa | 0V | 00:00:00 | 00:00:00 | 00:00:00 | |
| RDZ2B | 2026-09-03 12:01:26 | 41.59561 | 8.96616 | 163° | 84km/h | 13504m | 3.4m/s | 0°C | 0% | 0hPa | 0V | 00:00:00 | 00:00:00 | 00:00:00 | |
| RDZBGO | 2026-09-03 12:01:13 | 41.59835 | 8.96458 | 159° | 84km/h | 13450m | 3.9m/s | 0°C | 0% | 0hPa | 0V | 00:00:00 | 00:00:00 | 00:00:00 | |
| RDZBGO | 2026-09-03 12:00:52 | 41.60260 | 8.96172 | 156° | 95km/h | 13362m | 4.3m/s | 0°C | 0% | 0hPa | 0V | 00:00:00 | 00:00:00 | 00:00:00 | |
| RDZBGO | 2026-09-03 12:00:31 | 41.60698 | 8.95845 | 151° | 99km/h | 13273m | 5.4m/s | 0°C | 0% | 0hPa | 0V | 00:00:00 | 00:00:00 | 00:00:00 | |
| RDZBGO | 2026-09-03 12:00:11 | 41.61124 | 8.95507 | 147° | 93km/h | 13191m | 4.9m/s | 0°C | 0% | 0hPa | 0V | 00:00:00 | 00:00:00 | 00:00:00 | |
| RDZBGO | 2026-09-03 11:59:50 | 41.61541 | 8.95117 | 149° | 84km/h | 13102m | 3.7m/s | 0°C | 0% | 0hPa | 0V | 00:00:00 | 00:00:00 | 00:00:00 | |
| RDZBGO | 2026-09-03 11:59:30 | 41.61940 | 8.94779 | 152° | 102km/h | 13019m | 4.0m/s | 0°C | 0% | 0hPa | 0V | 00:00:00 | 00:00:00 | 00:00:00 | |
| RDZBGO | 2026-09-03 11:59:08 | 41.62384 | 8.94473 | 154° | 88km/h | 12931m | 5.2m/s | 0°C | 0% | 0hPa | 0V | 00:00:00 | 00:00:00 | 00:00:00 | |
| RDZBGO | 2026-09-03 11:58:47 | 41.62800 | 8.94243 | 158° | 80km/h | 12845m | 5.7m/s | 0°C | 0% | 0hPa | 0V | 00:00:00 | 00:00:00 | 00:00:00 | |
| RDZ2B | 2026-09-03 11:58:43 | 41.62877 | 8.94202 | 159° | 88km/h | 12828m | 3.2m/s | 0°C | 0% | 0hPa | 0V | 00:00:00 | 00:00:00 | 00:00:00 | |
| RDZBGO | 2026-09-03 11:58:27 | 41.63176 | 8.94049 | 164° | 91km/h | 12765m | 3.5m/s | 0°C | 0% | 0hPa | 0V | 00:00:00 | 00:00:00 | 00:00:00 | |
| RDZBGO | 2026-09-03 11:58:07 | 41.63564 | 8.93859 | 165° | 86km/h | 12681m | 2.8m/s | 0°C | 0% | 0hPa | 0V | 00:00:00 | 00:00:00 | 00:00:00 | |
| RDZBGO | 2026-09-03 11:57:46 | 41.63979 | 8.93668 | 161° | 77km/h | 12597m | 5.7m/s | 0°C | 0% | 0hPa | 0V | 00:00:00 | 00:00:00 | 00:00:00 | |
| RDZBGO | 2026-09-03 11:56:21 | 41.65702 | 8.92824 | 159° | 80km/h | 12253m | 4.6m/s | 0°C | 0% | 0hPa | 0V | 00:00:00 | 00:00:00 | 00:00:00 | |
| RDZ2B | 2026-09-03 11:56:20 | 41.65720 | 8.92814 | 159° | 78km/h | 12249m | 3.9m/s | 0°C | 0% | 0hPa | 0V | 00:00:00 | 00:00:00 | 00:00:00 | |
| RDZBGO | 2026-09-03 11:56:00 | 41.66128 | 8.92639 | 164° | 82km/h | 12165m | 3.7m/s | 0°C | 0% | 0hPa | 0V | 00:00:00 | 00:00:00 | 00:00:00 | |
| RDZBGO | 2026-09-03 11:55:39 | 41.66558 | 8.92458 | 163° | 84km/h | 12075m | 4.7m/s | 0°C | 0% | 0hPa | 0V | 00:00:00 | 00:00:00 | 00:00:00 | |
| RDZBGO | 2026-09-03 11:55:18 | 41.66992 | 8.92279 | 171° | 69km/h | 11991m | 2.6m/s | 0°C | 0% | 0hPa | 0V | 00:00:00 | 00:00:00 | 00:00:00 | |
| RDZBGO | 2026-09-03 11:54:57 | 41.67423 | 8.92092 | 162° | 77km/h | 11910m | 4.7m/s | 0°C | 0% | 0hPa | 0V | 00:00:00 | 00:00:00 | 00:00:00 | |
| RDZBGO | 2026-09-03 11:54:36 | 41.67853 | 8.91912 | 158° | 78km/h | 11827m | 4.6m/s | 0°C | 0% | 0hPa | 0V | 00:00:00 | 00:00:00 | 00:00:00 | |
| RDZBGO | 2026-09-03 11:54:16 | 41.68253 | 8.91718 | 166° | 97km/h | 11750m | 3.3m/s | 0°C | 0% | 0hPa | 0V | 00:00:00 | 00:00:00 | 00:00:00 | |
| RDZBGO | 2026-09-03 11:53:56 | 41.68650 | 8.91515 | 157° | 82km/h | 11673m | 4.5m/s | 0°C | 0% | 0hPa | 0V | 00:00:00 | 00:00:00 | 00:00:00 | |
| RDZBGO | 2026-09-03 11:53:35 | 41.69068 | 8.91301 | 160° | 80km/h | 11587m | 3.9m/s | 0°C | 0% | 0hPa | 0V | 00:00:00 | 00:00:00 | 00:00:00 | |
| RDZBGO | 2026-09-03 11:53:15 | 41.69470 | 8.91097 | 155° | 78km/h | 11507m | 3.9m/s | 0°C | 0% | 0hPa | 0V | 00:00:00 | 00:00:00 | 00:00:00 | |
| RDZBGO | 2026-09-03 11:52:54 | 41.69887 | 8.90871 | 162° | 80km/h | 11421m | 4.0m/s | 0°C | 0% | 0hPa | 0V | 00:00:00 | 00:00:00 | 00:00:00 | |
| RDZBGO | 2026-09-03 11:52:33 | 41.70306 | 8.90660 | 160° | 97km/h | 11336m | 3.8m/s | 0°C | 0% | 0hPa | 0V | 00:00:00 | 00:00:00 | 00:00:00 | |
| RDZBGO | 2026-09-03 11:52:12 | 41.70729 | 8.90453 | 155° | 89km/h | 11252m | 3.6m/s | 0°C | 0% | 0hPa | 0V | 00:00:00 | 00:00:00 | 00:00:00 | |
| RDZBGO | 2026-09-03 11:51:51 | 41.71144 | 8.90242 | 149° | 82km/h | 11166m | 3.7m/s | 0°C | 0% | 0hPa | 0V | 00:00:00 | 00:00:00 | 00:00:00 | |
| RDZBGO | 2026-09-03 11:51:30 | 41.71555 | 8.90020 | 152° | 95km/h | 11075m | 3.0m/s | 0°C | 0% | 0hPa | 0V | 00:00:00 | 00:00:00 | 00:00:00 | |
| RDZBGO | 2026-09-03 11:51:10 | 41.71937 | 8.89834 | 162° | 62km/h | 10991m | 5.9m/s | 0°C | 0% | 0hPa | 0V | 00:00:00 | 00:00:00 | 00:00:00 | |
| RDZBGO | 2026-09-03 11:50:49 | 41.72309 | 8.89673 | 166° | 75km/h | 10904m | 3.0m/s | 0°C | 0% | 0hPa | 0V | 00:00:00 | 00:00:00 | 00:00:00 | |
| RDZBGO | 2026-09-03 11:50:29 | 41.72661 | 8.89492 | 159° | 82km/h | 10822m | 4.7m/s | 0°C | 0% | 0hPa | 0V | 00:00:00 | 00:00:00 | 00:00:00 | |
| RDZBGO | 2026-09-03 11:50:07 | 41.73051 | 8.89306 | 156° | 86km/h | 10732m | 4.4m/s | 0°C | 0% | 0hPa | 0V | 00:00:00 | 00:00:00 | 00:00:00 | |
| RDZBGO | 2026-09-03 11:49:46 | 41.73430 | 8.89138 | 156° | 82km/h | 10642m | 4.7m/s | 0°C | 0% | 0hPa | 0V | 00:00:00 | 00:00:00 | 00:00:00 | |
| RDZBGO | 2026-09-03 11:49:26 | 41.73787 | 8.88949 | 162° | 78km/h | 10560m | 3.0m/s | 0°C | 0% | 0hPa | 0V | 00:00:00 | 00:00:00 | 00:00:00 | |
| RDZBGO | 2026-09-03 11:49:05 | 41.74171 | 8.88751 | 166° | 77km/h | 10475m | 2.3m/s | 0°C | 0% | 0hPa | 0V | 00:00:00 | 00:00:00 | 00:00:00 | |
| RDZBGO | 2026-09-03 11:48:45 | 41.74533 | 8.88556 | 150° | 80km/h | 10396m | 2.8m/s | 0°C | 0% | 0hPa | 0V | 00:00:00 | 00:00:00 | 00:00:00 | |
| RDZBGO | 2026-09-03 11:48:24 | 41.74912 | 8.88366 | 153° | 86km/h | 10311m | 3.5m/s | 0°C | 0% | 0hPa | 0V | 00:00:00 | 00:00:00 | 00:00:00 | |
| RDZBGO | 2026-09-03 11:48:04 | 41.75258 | 8.88169 | 162° | 84km/h | 10236m | 4.7m/s | 0°C | 0% | 0hPa | 0V | 00:00:00 | 00:00:00 | 00:00:00 | |
| RDZBGO | 2026-09-03 11:47:43 | 41.75624 | 8.87974 | 157° | 80km/h | 10157m | 6.1m/s | 0°C | 0% | 0hPa | 0V | 00:00:00 | 00:00:00 | 00:00:00 | |
| RDZBGO | 2026-09-03 11:47:22 | 41.75983 | 8.87777 | 159° | 75km/h | 10074m | 4.0m/s | 0°C | 0% | 0hPa | 0V | 00:00:00 | 00:00:00 | 00:00:00 | |
| RDZBGO | 2026-09-03 11:47:01 | 41.76341 | 8.87593 | 156° | 71km/h | 9990m | 4.6m/s | 0°C | 0% | 0hPa | 0V | 00:00:00 | 00:00:00 | 00:00:00 | |
| RDZBGO | 2026-09-03 11:46:41 | 41.76670 | 8.87418 | 150° | 84km/h | 9904m | 4.9m/s | 0°C | 0% | 0hPa | 0V | 00:00:00 | 00:00:00 | 00:00:00 | |
| RDZBGO | 2026-09-03 11:46:20 | 41.77021 | 8.87213 | 156° | 69km/h | 9819m | 4.0m/s | 0°C | 0% | 0hPa | 0V | 00:00:00 | 00:00:00 | 00:00:00 | |
| RDZBGO | 2026-09-03 11:46:00 | 41.77363 | 8.87022 | 163° | 71km/h | 9738m | 4.4m/s | 0°C | 0% | 0hPa | 0V | 00:00:00 | 00:00:00 | 00:00:00 | |
| RDZBGO | 2026-09-03 11:45:39 | 41.77724 | 8.86840 | 171° | 64km/h | 9659m | 4.6m/s | 0°C | 0% | 0hPa | 0V | 00:00:00 | 00:00:00 | 00:00:00 | |
| RDZBGO | 2026-09-03 11:45:19 | 41.78067 | 8.86710 | 170° | 75km/h | 9567m | 4.1m/s | 0°C | 0% | 0hPa | 0V | 00:00:00 | 00:00:00 | 00:00:00 | |
| RDZBGO | 2026-09-03 11:44:57 | 41.78422 | 8.86609 | 168° | 64km/h | 9456m | 6.7m/s | 0°C | 0% | 0hPa | 0V | 00:00:00 | 00:00:00 | 00:00:00 | |
| RDZBGO | 2026-09-03 11:44:36 | 41.78755 | 8.86545 | 179° | 58km/h | 9352m | 4.4m/s | 0°C | 0% | 0hPa | 0V | 00:00:00 | 00:00:00 | 00:00:00 | |
| RDZBGO | 2026-09-03 11:44:15 | 41.79097 | 8.86477 | 165° | 82km/h | 9257m | 3.0m/s | 0°C | 0% | 0hPa | 0V | 00:00:00 | 00:00:00 | 00:00:00 | |
| RDZBGO | 2026-09-03 11:43:54 | 41.79445 | 8.86415 | 160° | 51km/h | 9162m | 3.8m/s | 0°C | 0% | 0hPa | 0V | 00:00:00 | 00:00:00 | 00:00:00 | |
| RDZBGO | 2026-09-03 11:43:34 | 41.79779 | 8.86353 | 176° | 55km/h | 9058m | 5.8m/s | 0°C | 0% | 0hPa | 0V | 00:00:00 | 00:00:00 | 00:00:00 | |
| RDZBGO | 2026-09-03 11:43:13 | 41.80121 | 8.86279 | 184° | 69km/h | 8957m | 5.4m/s | 0°C | 0% | 0hPa | 0V | 00:00:00 | 00:00:00 | 00:00:00 | |
| RDZBGO | 2026-09-03 11:42:53 | 41.80471 | 8.86229 | 184° | 73km/h | 8849m | 6.4m/s | 0°C | 0% | 0hPa | 0V | 00:00:00 | 00:00:00 | 00:00:00 | |
| RDZBGO | 2026-09-03 11:42:32 | 41.80809 | 8.86169 | 173° | 51km/h | 8732m | 2.9m/s | 0°C | 0% | 0hPa | 0V | 00:00:00 | 00:00:00 | 00:00:00 | |
| RDZBGO | 2026-09-03 11:42:13 | 41.81106 | 8.86085 | 175° | 64km/h | 8621m | 4.5m/s | 0°C | 0% | 0hPa | 0V | 00:00:00 | 00:00:00 | 00:00:00 | |
| RDZBGO | 2026-09-03 11:41:51 | 41.81421 | 8.85983 | 165° | 62km/h | 8519m | 6.0m/s | 0°C | 0% | 0hPa | 0V | 00:00:00 | 00:00:00 | 00:00:00 | |
| RDZBGO | 2026-09-03 11:41:31 | 41.81701 | 8.85896 | 183° | 47km/h | 8412m | 6.0m/s | 0°C | 0% | 0hPa | 0V | 00:00:00 | 00:00:00 | 00:00:00 | |
| RDZBGO | 2026-09-03 11:41:10 | 41.81973 | 8.85786 | 155° | 49km/h | 8304m | 6.6m/s | 0°C | 0% | 0hPa | 0V | 00:00:00 | 00:00:00 | 00:00:00 | |
| RDZBGO | 2026-09-03 11:40:50 | 41.82213 | 8.85664 | 151° | 42km/h | 8199m | 1.6m/s | 0°C | 0% | 0hPa | 0V | 00:00:00 | 00:00:00 | 00:00:00 | |
| RDZBGO | 2026-09-03 11:40:29 | 41.82498 | 8.85548 | 162° | 58km/h | 8094m | 5.2m/s | 0°C | 0% | 0hPa | 0V | 00:00:00 | 00:00:00 | 00:00:00 | |
| RDZBGO | 2026-09-03 11:40:08 | 41.82778 | 8.85432 | 168° | 40km/h | 7986m | 5.4m/s | 0°C | 0% | 0hPa | 0V | 00:00:00 | 00:00:00 | 00:00:00 | |
| RDZ2B | 2026-09-03 11:39:59 | 41.82891 | 8.85388 | 177° | 38km/h | 7938m | 2.4m/s | 0°C | 0% | 0hPa | 0V | 00:00:00 | 00:00:00 | 00:00:00 | |
| RDZBGO | 2026-09-03 11:39:47 | 41.83038 | 8.85343 | 162° | 44km/h | 7874m | 5.2m/s | 0°C | 0% | 0hPa | 0V | 00:00:00 | 00:00:00 | 00:00:00 | |
| RDZBGO | 2026-09-03 11:39:05 | 41.83562 | 8.85175 | 157° | 66km/h | 7643m | 2.7m/s | 0°C | 0% | 0hPa | 0V | 00:00:00 | 00:00:00 | 00:00:00 | |
| RDZBGO | 2026-09-03 11:38:44 | 41.83824 | 8.85092 | 150° | 47km/h | 7539m | 4.1m/s | 0°C | 0% | 0hPa | 0V | 00:00:00 | 00:00:00 | 00:00:00 | |
| RDZBGO | 2026-09-03 11:38:24 | 41.84063 | 8.84995 | 149° | 49km/h | 7435m | 6.3m/s | 0°C | 0% | 0hPa | 0V | 00:00:00 | 00:00:00 | 00:00:00 | |
| RDZBGO | 2026-09-03 11:38:03 | 41.84324 | 8.84868 | 148° | 42km/h | 7307m | 3.8m/s | 0°C | 0% | 0hPa | 0V | 00:00:00 | 00:00:00 | 00:00:00 | |
| RDZ2B | 2026-09-03 11:38:01 | 41.84347 | 8.84851 | 158° | 60km/h | 7297m | 4.8m/s | 0°C | 0% | 0hPa | 0V | 00:00:00 | 00:00:00 | 00:00:00 |